Location: Young's Pond
(41.2695°N, 72.7766°W)
Time: 06:52:02
(UTC-04:00)

CZ-4B R/B - Visible Passes

Search period start: 25 July 2017 00:00
Search period end: 04 August 2017 00:00
Orbit: 402 x 489 km, 97.5° (Epoch: 25 July)

Date Brightness Start Highest point End Pass type
(mag) Time Alt. Az. Time Alt. Az. Time Alt. Az.
25 Jul 3.8 01:28:01 23° NNW 01:28:01 23° NNW 01:29:28 10° NNW visible
26 Jul 4.0 00:51:37 20° NNE 00:51:37 20° NNE 00:53:02 10° N visible
27 Jul 4.6 00:15:13 10° NE 00:15:13 10° NE 00:15:20 10° NE visible
27 Jul 4.1 01:48:48 17° NNW 01:48:48 17° NNW 01:49:44 10° NNW visible
28 Jul 4.0 01:12:23 21° N 01:12:23 21° N 01:13:41 10° N visible
29 Jul 4.4 00:35:59 14° NE 00:35:59 14° NE 00:36:51 10° NNE visible
29 Jul 4.4 02:09:33 11° NW 02:09:33 11° NW 02:09:42 10° NW visible
30 Jul 4.2 01:33:08 18° NNW 01:33:08 18° NNW 01:34:05 10° NNW visible
31 Jul 4.3 00:56:43 17° NNE 00:56:43 17° NNE 00:57:42 10° N visible
01 Aug 4.4 01:53:52 12° NNW 01:53:52 12° NNW 01:54:15 10° NNW visible
02 Aug 4.4 01:17:27 16° N 01:17:27 16° N 01:18:14 10° N visible
03 Aug 4.6 00:41:01 12° NNE 00:41:01 12° NNE 00:41:28 10° NNE visible
